User: anonymous   Login
Location: Irma
(52.9170°N, 111.2330°W)
Time: 21:17:55
(UTC-06:00)
Language:

Meteor 1-24 Rocket - Orbit

View from above orbital plane
View from above orbital plane
View from above satellite
View from above satellite

Ground track
Ground track

The orbit data is extracted from the following two-line orbital elements,

1 08800U 76032B   16145.21899905  .00000131  00000-0  64570-4 0  9995
2 08800  81.2527 235.7201 0094575 205.4939 154.1553 14.10070017 63368
Epoch (UTC): 24 May 2016 05:15:21
Eccentricity: 0.0094575
inclination: 81.2527°
perigee height: 790 km
apogee height: 927 km
right ascension of ascending node: 235.7201°
argument of perigee: 205.4939°
revolutions per day: 14.10070017
mean anomaly at epoch: 154.1553°
orbit number at epoch: 6336

The dashed part of the orbit path shows where the satellite is in the earth's shadow,  

DLR